Flag for Italy Weather past 2 weeks in Bologna, Italy

Now
39 °F

Clear.


Feels Like: 34 °F
Forecast: 44 / 60 °F
Wind: 7 mph from Southwest

Location: Bologna / Borgo Panigale

Current Time: Mar 1, 2015 at 4:12:54 AM

Latest Report: Mar 1, 2015 at 3:50 AM


Visibility: 10 mi

Pressure: 30.04 "Hg

Humidity: 87%

Dew point: 36 °F

Location of BolognaLocation

Historic Weather in Bologna — Graph

°F

Bologna temperature yesterday

Maximum temperature yesterday: 55 °F (at 2:50 PM)
Minimum temperature yesterday: 39 °F (at 6:20 AM)
Average temperature yesterday: 46 °F

Past Weeks' High & Low Weather Summary

 TemperatureHumidityPressure
High57 °F (Feb 21, 11:50 AM)100% (Feb 14, 7:20 PM)30.63 "Hg (Feb 14, 7:20 PM)
Low32 °F (Feb 18, 6:20 AM)35% (Feb 19, 4:20 PM)29.47 "Hg (Feb 22, 3:20 AM)
Average44 °F80%30.01 "Hg
* Reported Feb 14 2:20 AM — Mar 1 2:50 AM, Bologna, Weather by CustomWeather, © 2015

Note: Actual official high and low records may vary slightly from our data, if they occured in-between our weather recording intervals... More about our weather records

Advertising

Bologna weather history for previous 24 hours

 ConditionsComfort  
Time TempWeatherWind HumidityBarometerVisibility
2:50 AM
Sun, Mar 1
41 °FClear.8 mph81%30.04 "Hg10 mi
1:50 AM41 °FClear.8 mph81%30.07 "Hg10 mi
1:20 AM41 °FClear.8 mph87%30.07 "Hg10 mi
12:50 AM41 °FClear.9 mph87%30.07 "Hg10 mi
12:20 AM41 °FClear.7 mph81%30.07 "Hg10 mi
11:50 PM
Sat, Feb 28
41 °FClear.7 mph87%30.07 "Hg10 mi
11:20 PM41 °FClear.7 mph87%30.07 "Hg10 mi
10:50 PM41 °FClear.7 mph87%30.07 "Hg10 mi
10:20 PM41 °FClear.6 mph87%30.07 "Hg10 mi
9:50 PM43 °FClear.5 mph87%30.09 "Hg10 mi
9:20 PM43 °FClear.5 mph81%30.07 "Hg10 mi
8:50 PM45 °FClear.3 mph76%30.07 "Hg10 mi
8:20 PM46 °FClear.5 mph71%30.07 "Hg10 mi
7:50 PM46 °FClear.5 mph71%30.07 "Hg10 mi
7:20 PM46 °FClear.5 mph71%30.07 "Hg10 mi
6:50 PM46 °FClear.3 mph71%30.07 "Hg10 mi
6:20 PM50 °FClear.3 mph62%30.04 "Hg10 mi
5:50 PM52 °FPassing clouds.5 mph62%30.04 "HgN/A
5:20 PM52 °FPassing clouds.5 mph58%30.04 "HgN/A
4:50 PM54 °FPassing clouds.5 mph54%30.04 "HgN/A
4:20 PM55 °FPassing clouds.7 mph51%30.01 "HgN/A
3:50 PM55 °FPassing clouds.3 mph55%30.04 "HgN/A
3:20 PM55 °FPassing clouds.6 mph55%30.01 "HgN/A
2:50 PM55 °FPassing clouds.3 mph55%30.04 "HgN/A
2:20 PM54 °FPassing clouds.3 mph58%30.04 "HgN/A
1:50 PM54 °FPassing clouds.5 mph63%30.04 "HgN/A
1:20 PM54 °FPassing clouds.5 mph63%30.04 "HgN/A
12:50 PM54 °FPassing clouds.6 mph58%30.04 "HgN/A
12:20 PM54 °FPassing clouds.7 mph58%30.04 "HgN/A
11:50 AM54 °FPassing clouds.8 mph58%30.04 "HgN/A
11:20 AM52 °FPassing clouds.8 mph58%30.04 "HgN/A
10:50 AM50 °FPassing clouds.6 mph67%30.04 "HgN/A
10:20 AM48 °FPassing clouds.5 mph66%30.04 "HgN/A
9:50 AM46 °FPassing clouds.3 mph76%30.04 "HgN/A
9:20 AM46 °FSunny.3 mph71%30.04 "Hg10 mi
8:50 AM45 °FPassing clouds.6 mph76%30.01 "HgN/A
8:20 AM43 °FSunny.8 mph81%30.01 "Hg10 mi
7:50 AM41 °FSunny.7 mph81%29.98 "Hg10 mi
7:20 AM39 °FSunny.8 mph87%29.98 "Hg10 mi
6:50 AM39 °FClear.8 mph87%29.98 "Hg10 mi
6:20 AM39 °FClear.7 mph87%29.98 "Hg10 mi
5:50 AM41 °FClear.7 mph81%29.95 "Hg10 mi
5:20 AM41 °FClear.8 mph81%29.95 "Hg10 mi
4:50 AM41 °FClear.8 mph81%29.95 "Hg10 mi
4:20 AM41 °FClear.8 mph81%29.95 "Hg10 mi
Weather by CustomWeather, © 2015

See weather overviewHow to use our weather pages